This is the latest recevied weather packets stored in our database for station/object OE2ATN. If no packets are shown the sender has not sent any weather packets the latest 1 day(s).
| Time | Temp. | Humidity | Pressure | Rain* | Wind** | Luminosity | Snow |
|---|---|---|---|---|---|---|---|
| 1778031313 | 6.67° C | 63% | 1017.5 hPa | 0 mm | - | - | - |
| 1778031012 | 6.67° C | 64% | 1017.5 hPa | 0 mm | - | - | - |
| 1778030709 | 6.67° C | 66% | 1017.5 hPa | 0 mm | - | - | - |
| 1778030106 | 6.11° C | 68% | 1017.3 hPa | 0 mm | - | - | - |
| 1778029806 | 6.67° C | 68% | 1017.4 hPa | 0 mm | - | - | - |
| 1778029207 | 6.67° C | 68% | 1017.2 hPa | 0 mm | - | - | - |
| 1778028907 | 6.67° C | 69% | 1017.2 hPa | 0 mm | - | - | - |
| 1778028007 | 7.22° C | 75% | 1017.1 hPa | 0 mm | - | - | - |
| 1778026807 | 7.78° C | 74% | 1017.1 hPa | 0 mm | - | - | - |
| 1778025907 | 7.78° C | 73% | 1017.2 hPa | 0 mm | - | - | - |
| 1778025306 | 7.78° C | 74% | 1017.1 hPa | 0 mm | - | - | - |
| 1778023207 | 8.89° C | 74% | 1017.2 hPa | 0 mm | - | - | - |
| 1778021707 | 8.33° C | 75% | 1017.2 hPa | 0 mm | - | - | - |
| 1778021406 | 8.33° C | 75% | 1017.1 hPa | 0 mm | - | - | - |
| 1778020507 | 8.89° C | 74% | 1017 hPa | 0 mm | - | - | - |
| 1778019607 | 9.44° C | 74% | 1017 hPa | 0 mm | - | - | - |
| 1778018408 | 9.44° C | 73% | 1016.9 hPa | 0 mm | - | - | - |
| 1778017807 | 9.44° C | 73% | 1016.7 hPa | 0 mm | - | - | - |
| 1778016607 | 9.44° C | 73% | 1016.9 hPa | 0 mm | - | - | - |
| 1778014507 | 10.56° C | 70% | 1016.5 hPa | 0 mm | - | - | - |
| 1778013607 | 11.67° C | 67% | 1016.3 hPa | 0 mm | - | - | - |
| 1778012709 | 11.67° C | 66% | 1016.1 hPa | 0 mm | - | - | - |
| 1778012407 | 11.67° C | 67% | 1016.1 hPa | 0 mm | - | - | - |
| 1778012107 | 11.67° C | 66% | 1016 hPa | 0 mm | - | - | - |
| 1778011806 | 12.22° C | 66% | 1015.9 hPa | 0 mm | - | - | - |
* Rain latest hour (hover to see other rain measurements)
** Current wind speed in m/s (hover to see current wind gust speed)